[Iaude] MPEC K08: 2024 JV17 [a=2.03,e=0.48,i=9.3,H=24.4]

mpec at cfa.harvard.edu mpec at cfa.harvard.edu
Thu May 16 20:45:41 EDT 2024


M.P.E.C. 2024-K08                                  Issued 2024 May 17, 00:44 UT

     The Minor Planet Electronic Circulars contain information on unusual
         minor planets, routine data on comets and natural satellites,
         and occasional editorial announcements.  They are published
    on behalf of Division F of the International Astronomical Union by the
          Minor Planet Center, Smithsonian Astrophysical Observatory,
                          Cambridge, MA 02138, U.S.A.
			  
             Prepared using the Tamkin Foundation Computer Network

                              MPC at CFA.HARVARD.EDU
            URL https://www.minorplanetcenter.net/    ISSN 1523-6714

                                   2024 JV17                                    


Observations:
     K24J17V  C2024 05 09.53646315 22 41.082+22 42 39.33         21.03GVEK008F51
     K24J17V  C2024 05 09.54923315 22 43.875+22 42 16.85         21.13GVEK008F51
     K24J17V  C2024 05 09.56195715 22 46.683+22 41 54.21         20.99GVEK008F51
     K24J17V  C2024 05 09.57470915 22 49.516+22 41 31.37         20.82GVEK008F51
     K24J17V*1C2024 05 15.32892015 53 26.038+18 33 09.65         20.22GVEK008G96
     K24J17V 1C2024 05 15.33916015 53 29.771+18 32 30.88         19.81GVEK008G96
     K24J17V 1C2024 05 15.34428115 53 31.654+18 32 11.22         20.24GVEK008G96
     K24J17V KC2024 05 15.41989115 53 59.557+18 27 18.07         19.93GVEK008I52
     K24J17V KC2024 05 15.42082215 53 59.921+18 27 14.51         20.38GVEK008I52
     K24J17V KC2024 05 15.42176415 54 00.256+18 27 10.51         20.42GVEK008I52
     K24J17V KC2024 05 15.42269415 54 00.590+18 27 06.48         19.83GVEK008I52
     K24J17V KB2024 05 15.97976 15 58 01.79 +17 50 15.7          20.3 VqEK008Y66
     K24J17V KB2024 05 15.98049 15 58 02.07 +17 50 12.7          20.5 VqEK008Y66
     K24J17V KC2024 05 15.98092615 58 00.012+17 49 30.90         19.9 GVEK008J95
     K24J17V KB2024 05 15.98122 15 58 02.35 +17 50 09.7                qEK008Y66
     K24J17V KB2024 05 15.98190 15 58 02.61 +17 50 07.0          20.2 VqEK008Y66
     K24J17V KB2024 05 15.98252 15 58 02.87 +17 50 04.3          20.4 VqEK008Y66
     K24J17V KC2024 05 15.98407515 58 01.258+17 49 18.91         20.1 GVEK008J95
     K24J17V KC2024 05 15.98722615 58 02.534+17 49 06.24         20.5 GVEK008J95
     K24J17V KC2024 05 15.99034215 58 03.778+17 48 53.17         20.3 GVEK008J95
     K24J17V KC2024 05 16.18593915 59 30.72 +17 35 28.3          20.5 GVEK008H21
     K24J17V KC2024 05 16.18873515 59 31.85 +17 35 16.7          20.2 GVEK008H21
     K24J17V KC2024 05 16.19153315 59 33.00 +17 35 05.0          20.2 GVEK008H21
     K24J17V KC2024 05 16.19432915 59 34.12 +17 34 53.0          20.1 GVEK008H21

Observer details:
F51 Pan-STARRS 1, Haleakala.  Observers J. Herman, T. Lowe, P. Minguez, A.
    Schultz, I. Smith.  Measurers K. Chambers, T. de Boer, J. Fairlamb, H.
    Gao, M. Huber, C.-C. Lin, E. Magnier, Y. Ramanjooloo, R. Wainscoat, R.
    Weryk.  1.8-m Ritchey-Chretien + CCD.
G96 Mt. Lemmon Survey.  Observer D. Rankin.  Measurers T. Beuden, V. F.
    Carvajal, D. Fay, J. B. Fazekas, D. C. Fuls, A. R. Gibbs, A. D. Grauer, H.
    Groeller, J. K. Hogan, R. A. Kowalski, S. M. Larson, G. J. Leonard, D.
    Rankin, R. L. Seaman, F. C. Shelly, K. W. Wierzchos.  1.5-m reflector +
    10K CCD.
H21 Astronomical Research Observatory, Westfield.  Observer R. Holmes.
    Measurers T. Linder, R. Holmes, L. Horn.  0.76-m f/3.0 astrograph + CCD.
I52 Steward Observatory, Mt. Lemmon Station.  Observer K. W. Wierzchos.
    Measurers T. Beuden, V. F. Carvajal, D. Fay, J. B. Fazekas, D. C. Fuls, A.
    R. Gibbs, A. D. Grauer, H. Groeller, J. K. Hogan, R. A. Kowalski, S. M.
    Larson, G. J. Leonard, D. Rankin, R. L. Seaman, F. C. Shelly, K. W.
    Wierzchos.  1.0-m prime focus + CCD.
J95 Great Shefford.  Observer P. Birtwhistle.  0.41-m f/6.3 Schmidt-Cassegrain
    + CCD.
Y66 Two-Meter Twin Telescope, TTT2, Teide.  Observer M. R. Alarcon.
    Measurer M. Serra-Ricart.  0.80-m f/4.38 reflector + CMO.

Orbital elements:
2024 JV17                                                Earth MOID = 0.0335 AU
Epoch 2024 Mar. 31.0 TT = JDT 2460400.5                 Veres                   
M 337.29663              (2000.0)            P               Q                  
n   0.34184151     Peri.  186.87178     -0.21856718     +0.96393363             
a   2.0257516      Node    70.58976     -0.88746175     -0.13164615             
e   0.4835258      Incl.    9.26538     -0.40575858     -0.23130338             
P   2.88           H   24.40          G   0.15           U   8                  
Residuals in seconds of arc
240509 F51  0.1-  0.0     240515 I52  0.1+  0.2+    240515 Y66  0.2+  0.2-
240509 F51  0.0   0.0     240515 I52  0.2-  0.1-    240515 J95  0.0   0.3+
240509 F51  0.1+  0.0     240515 I52  0.4-  0.5-    240515 J95  0.2+  0.6+
240509 F51  0.0   0.0     240515 Y66  0.2+  0.0     240515 J95  0.2+  0.3+
240515 G96  0.1-  0.0     240515 Y66  0.1+  0.0     240516 H21  0.2-  0.1-
240515 G96  0.1-  0.1+    240515 J95  0.2+  0.7-    240516 H21  0.1-  0.1+
240515 G96  0.1+  0.0     240515 Y66  0.0   0.0     240516 H21  0.2+  0.1+
240515 I52  0.1-  0.1+    240515 Y66  0.1-  0.0     240516 H21  0.1+  0.2-

Ephemeris:
2024 JV17                a,e,i = 2.03, 0.48, 9                   q = 1.0462
Date    TT    R. A. (2000) Decl.     Delta      r    Elong.  Phase     V
2024 04 17    14 33 54.3 +23 58 12   0.2215  1.1886   143.2    30.4    22.8
...
2024 05 02    14 58 55.3 +24 39 58   0.1413  1.1192   139.6    35.7    21.9
...
2024 05 10    15 24 40.8 +22 29 32   0.1029  1.0903   139.7    36.8    21.1
...
2024 05 16    15 58 06.7 +17 49 20   0.07662 1.0729   142.5    35.0    20.4
2024 05 17    16 05 38.6 +16 35 05   0.07259 1.0704   143.4    34.3    20.3
2024 05 18    16 13 55.0 +15 09 45   0.06870 1.0680   144.3    33.5    20.1
...
2024 05 24    17 23 58.3 +01 15 47   0.04975 1.0562   150.5    28.2    19.2
...
2024 06 01    19 58 02.5 -27 49 42   0.04717 1.0475   134.2    43.9    19.6
...
2024 06 16    23 12 38.2 -42 16 28   0.09786 1.0534   110.0    65.0    21.8

M. P. C. Staff               (C) Copyright 2024 MPC           M.P.E.C. 2024-K08





More information about the Iaude mailing list